CCA1535 ZSAM-ZWWW

Flight info

Callsign CCA1535
Flight time 5h 45m
Altitude 36100
Route BUPDU W643 FOC W644 AKAVO A470 EMRID V143 SAPIN A470 DOGVI W135 NOBEM V64 TUTKI V78 FYG B208 SQ W45 BISAL V90 LEBOM B215 NIRUV W199 ALGOT V67 NUKTI B215 DUMAM
Aircraft A339/H-SADE1E2E3GHIJ1J3J5M1P2RWXY/LB1

Departure

Time 2026-04-28 00:10
Airport Xiamen Gaoqi International Airport (ZSAM)

Arrival

Time 2026-04-28 05:55
Airport Ürümqi Tianshan International Airport (ZWWW)
Time Latitude Longitude Altitude Speed Heading
2026-04-27 23:47 24.54762 118.13955 81 ft 0 kts 52°
2026-04-27 23:56 24.54759 118.13952 81 ft 2 kts 52°
2026-04-27 23:56 24.54750 118.13939 81 ft 2 kts 52°
2026-04-27 23:57 24.54741 118.13926 81 ft 2 kts 52°
2026-04-27 23:57 24.54734 118.13917 81 ft 2 kts 52°
2026-04-27 23:57 24.54722 118.13900 81 ft 2 kts 52°
2026-04-27 23:57 24.54716 118.13891 81 ft 2 kts 42°
2026-04-27 23:58 24.54702 118.13886 81 ft 2 kts 352°
2026-04-27 23:58 24.54693 118.13888 81 ft 1 kts 327°
2026-04-27 23:58 24.54688 118.13892 81 ft 0 kts 322°
2026-04-28 00:01 24.54694 118.13888 81 ft 1 kts 323°
2026-04-28 00:01 24.54710 118.13875 81 ft 3 kts 323°
2026-04-28 00:01 24.54727 118.13861 81 ft 5 kts 323°
2026-04-28 00:01 24.54773 118.13822 81 ft 7 kts 322°
2026-04-28 00:02 24.54802 118.13798 81 ft 8 kts 322°
2026-04-28 00:02 24.54862 118.13747 81 ft 5 kts 320°
2026-04-28 00:02 24.54872 118.13702 81 ft 7 kts 253°
2026-04-28 00:02 24.54840 118.13650 81 ft 9 kts 231°
2026-04-28 00:03 24.54795 118.13589 81 ft 11 kts 231°
2026-04-28 00:03 24.54740 118.13512 81 ft 13 kts 232°
2026-04-28 00:03 24.54676 118.13422 81 ft 15 kts 232°
2026-04-28 00:03 24.54603 118.13320 81 ft 17 kts 232°
2026-04-28 00:04 24.54523 118.13208 81 ft 19 kts 232°
2026-04-28 00:04 24.54345 118.12959 81 ft 21 kts 232°
2026-04-28 00:04 24.54249 118.12824 81 ft 22 kts 232°
2026-04-28 00:05 24.54151 118.12688 81 ft 21 kts 232°
2026-04-28 00:05 24.54089 118.12602 81 ft 21 kts 232°
2026-04-28 00:05 24.53969 118.12433 81 ft 20 kts 232°
2026-04-28 00:05 24.53911 118.12351 81 ft 20 kts 232°
2026-04-28 00:06 24.53825 118.12231 81 ft 19 kts 232°
2026-04-28 00:06 24.53713 118.12076 81 ft 19 kts 232°
2026-04-28 00:06 24.53632 118.11961 81 ft 18 kts 232°
2026-04-28 00:06 24.53550 118.11848 81 ft 18 kts 232°
2026-04-28 00:07 24.53471 118.11737 82 ft 16 kts 232°
2026-04-28 00:07 24.53434 118.11685 81 ft 11 kts 232°
2026-04-28 00:07 24.53408 118.11649 81 ft 3 kts 232°
2026-04-28 00:07 24.53398 118.11601 82 ft 6 kts 271°
2026-04-28 00:08 24.53409 118.11549 82 ft 7 kts 285°
2026-04-28 00:08 24.53419 118.11515 82 ft 7 kts 295°
2026-04-28 00:08 24.53457 118.11480 82 ft 5 kts 333°
2026-04-28 00:08 24.53494 118.11480 82 ft 6 kts 25°
2026-04-28 00:09 24.53521 118.11512 82 ft 3 kts 53°
2026-04-28 00:09 24.53526 118.11519 82 ft 3 kts 52°
2026-04-28 00:09 24.53652 118.11697 82 ft 65 kts 52°
2026-04-28 00:09 24.54083 118.12299 81 ft 132 kts 52°
2026-04-28 00:10 24.54526 118.12920 83 ft 170 kts 52°
2026-04-28 00:10 24.55291 118.13995 609 ft 180 kts 52°
2026-04-28 00:10 24.56290 118.15400 1652 ft 176 kts 53°
2026-04-28 00:10 24.56787 118.16094 2123 ft 171 kts 53°
2026-04-28 00:11 24.57501 118.17092 2688 ft 166 kts 53°
2026-04-28 00:11 24.58213 118.18090 3151 ft 166 kts 53°
2026-04-28 00:11 24.59201 118.19482 3539 ft 183 kts 53°
2026-04-28 00:11 24.60022 118.20638 3818 ft 198 kts 53°
2026-04-28 00:12 24.60898 118.21883 4103 ft 212 kts 57°
2026-04-28 00:12 24.61346 118.22866 4283 ft 221 kts 76°
2026-04-28 00:12 24.61513 118.24601 4584 ft 235 kts 92°
2026-04-28 00:12 24.61478 118.26462 4914 ft 252 kts 93°
2026-04-28 00:13 24.61413 118.29063 5668 ft 260 kts 93°
2026-04-28 00:13 24.61380 118.31059 6305 ft 263 kts 92°
2026-04-28 00:13 24.61354 118.33073 6919 ft 266 kts 92°
2026-04-28 00:13 24.61334 118.35101 7512 ft 268 kts 92°
2026-04-28 00:14 24.61304 118.37181 7976 ft 277 kts 92°
2026-04-28 00:14 24.61262 118.39351 8298 ft 291 kts 93°
2026-04-28 00:14 24.61232 118.40844 8628 ft 295 kts 92°
2026-04-28 00:14 24.61188 118.43105 9218 ft 298 kts 92°
2026-04-28 00:15 24.61130 118.46144 9994 ft 301 kts 92°
2026-04-28 00:15 24.61101 118.47700 10378 ft 303 kts 92°
2026-04-28 00:15 24.61055 118.50030 10756 ft 314 kts 92°
2026-04-28 00:15 24.60990 118.53326 11091 ft 333 kts 92°
2026-04-28 00:16 24.60955 118.55080 11308 ft 342 kts 92°
2026-04-28 00:16 24.60905 118.57686 11826 ft 347 kts 92°
2026-04-28 00:16 24.60835 118.61237 12626 ft 350 kts 92°
2026-04-28 00:16 24.60799 118.63007 13014 ft 352 kts 92°
2026-04-28 00:17 24.60745 118.65717 13595 ft 354 kts 93°
2026-04-28 00:17 24.60705 118.68419 14160 ft 358 kts 90°
2026-04-28 00:17 24.61241 118.71098 14638 ft 366 kts 65°
2026-04-28 00:17 24.63426 118.73910 15336 ft 370 kts 33°
2026-04-28 00:18 24.64911 118.74871 15717 ft 371 kts 28°
2026-04-28 00:18 24.67917 118.76730 16442 ft 376 kts 28°
2026-04-28 00:18 24.69457 118.77696 16792 ft 379 kts 29°
2026-04-28 00:18 24.72504 118.79636 17608 ft 379 kts 29°
2026-04-28 00:19 24.74010 118.80601 17997 ft 380 kts 29°
2026-04-28 00:19 24.76320 118.82085 18549 ft 383 kts 29°
2026-04-28 00:19 24.78610 118.83561 19046 ft 386 kts 29°
2026-04-28 00:19 24.81716 118.85566 19698 ft 390 kts 29°
2026-04-28 00:20 24.84072 118.87087 20196 ft 392 kts 29°
2026-04-28 00:20 24.85634 118.88097 20515 ft 394 kts 29°
2026-04-28 00:20 24.88030 118.89648 20989 ft 396 kts 29°
2026-04-28 00:20 24.90408 118.91188 21433 ft 399 kts 29°
2026-04-28 00:21 24.92814 118.92747 21861 ft 402 kts 29°
2026-04-28 00:21 24.95252 118.94328 22301 ft 404 kts 29°
2026-04-28 00:21 24.97667 118.95893 22733 ft 407 kts 29°
2026-04-28 00:21 25.00927 118.98010 23306 ft 410 kts 29°
2026-04-28 00:22 25.02579 118.99084 23579 ft 411 kts 28°
2026-04-28 00:22 25.05118 119.00623 23991 ft 414 kts 26°
2026-04-28 00:22 25.07647 119.02098 24402 ft 416 kts 26°
2026-04-28 00:22 25.10222 119.03592 24818 ft 418 kts 25°
2026-04-28 00:23 25.12810 119.05093 25212 ft 421 kts 26°
2026-04-28 00:23 25.15411 119.06606 25603 ft 423 kts 25°
2026-04-28 00:23 25.18028 119.08129 25990 ft 425 kts 25°
2026-04-28 00:23 25.21536 119.10174 26491 ft 429 kts 25°
2026-04-28 00:24 25.23299 119.11203 26748 ft 430 kts 25°
2026-04-28 00:24 25.25947 119.12749 27116 ft 432 kts 25°
2026-04-28 00:24 25.28634 119.14319 27467 ft 435 kts 25°
2026-04-28 00:24 25.32203 119.16406 27942 ft 438 kts 25°
2026-04-28 00:25 25.34034 119.17477 28176 ft 439 kts 25°
2026-04-28 00:25 25.36721 119.19048 28496 ft 442 kts 25°
2026-04-28 00:25 25.39463 119.20655 28817 ft 444 kts 25°
2026-04-28 00:25 25.43137 119.22810 29268 ft 447 kts 25°
2026-04-28 00:26 25.44962 119.23879 29486 ft 448 kts 25°
2026-04-28 00:26 25.47739 119.25507 29831 ft 450 kts 25°
2026-04-28 00:26 25.50444 119.27256 30060 ft 454 kts 29°
2026-04-28 00:27 25.55524 119.31432 30073 ft 456 kts 38°
2026-04-28 00:27 25.60043 119.36388 30080 ft 460 kts 44°
2026-04-28 00:28 25.64409 119.41610 30080 ft 459 kts 44°
2026-04-28 00:28 25.68778 119.46808 30083 ft 459 kts 44°
2026-04-28 00:29 25.73133 119.51940 30080 ft 460 kts 43°
2026-04-28 00:29 25.77938 119.56654 30081 ft 457 kts 34°
2026-04-28 00:30 25.84158 119.61091 30075 ft 454 kts 24°
2026-04-28 00:30 25.88823 119.63757 30074 ft 453 kts 23°
2026-04-28 00:31 25.94452 119.66920 30072 ft 454 kts 24°
2026-04-28 00:31 26.00127 119.70098 30071 ft 455 kts 24°
2026-04-28 00:32 26.05916 119.72832 30073 ft 450 kts 13°
2026-04-28 00:32 26.12071 119.74174 30070 ft 444 kts
2026-04-28 00:33 26.18203 119.74145 30079 ft 439 kts 353°
2026-04-28 00:33 26.24311 119.73727 30072 ft 440 kts 353°
2026-04-28 00:34 26.30446 119.73321 30075 ft 440 kts 353°
2026-04-28 00:34 26.36578 119.72931 30084 ft 440 kts 353°
2026-04-28 00:35 26.42719 119.72544 30082 ft 440 kts 353°
2026-04-28 00:35 26.48827 119.72315 30089 ft 442 kts 356°
2026-04-28 00:36 26.55014 119.72435 30094 ft 442 kts 357°
2026-04-28 00:36 26.61166 119.72578 30103 ft 442 kts 358°
2026-04-28 00:37 26.67349 119.72715 30102 ft 443 kts 357°
2026-04-28 00:37 26.73512 119.72846 30113 ft 442 kts 358°
2026-04-28 00:38 26.79689 119.72981 30111 ft 442 kts 357°
2026-04-28 00:38 26.85888 119.73113 30110 ft 443 kts 357°
2026-04-28 00:39 26.92046 119.73245 30104 ft 442 kts 357°
2026-04-28 00:39 26.98147 119.72620 30097 ft 436 kts 344°
2026-04-28 00:40 27.03886 119.70535 30124 ft 433 kts 332°
2026-04-28 00:40 27.06570 119.68967 30418 ft 432 kts 326°
2026-04-28 00:40 27.09113 119.67251 30849 ft 430 kts 325°
2026-04-28 00:40 27.11705 119.65456 31183 ft 431 kts 325°
2026-04-28 00:41 27.14281 119.63670 31357 ft 436 kts 325°
2026-04-28 00:41 27.16861 119.61890 31591 ft 439 kts 325°
2026-04-28 00:41 27.19536 119.60183 31884 ft 442 kts 329°
2026-04-28 00:41 27.22338 119.58729 32202 ft 445 kts 334°
2026-04-28 00:42 27.25285 119.57523 32488 ft 449 kts 339°
2026-04-28 00:42 27.28310 119.56604 32768 ft 452 kts 344°
2026-04-28 00:42 27.31424 119.55971 33049 ft 456 kts 348°
2026-04-28 00:42 27.34588 119.55640 33347 ft 459 kts 353°
2026-04-28 00:43 27.37794 119.55571 33739 ft 459 kts 356°
2026-04-28 00:43 27.40977 119.55580 34209 ft 456 kts 356°
2026-04-28 00:43 27.44139 119.55604 34627 ft 454 kts 356°
2026-04-28 00:43 27.47312 119.55627 34966 ft 454 kts 356°
2026-04-28 00:44 27.50474 119.55649 35268 ft 454 kts 356°
2026-04-28 00:44 27.53658 119.55669 35521 ft 454 kts 356°
2026-04-28 00:44 27.56845 119.55689 35777 ft 455 kts 356°
2026-04-28 00:44 27.59999 119.55707 36004 ft 456 kts 356°
2026-04-28 00:45 27.63177 119.55724 36142 ft 457 kts 356°
2026-04-28 00:45 27.69575 119.55762 36138 ft 457 kts 356°
2026-04-28 00:46 27.75947 119.55799 36129 ft 457 kts 356°
2026-04-28 00:46 27.82322 119.55834 36128 ft 457 kts 356°
2026-04-28 00:47 27.88671 119.55871 36132 ft 458 kts 355°
2026-04-28 00:47 27.95069 119.55924 36138 ft 457 kts 356°
2026-04-28 00:48 28.01456 119.56029 36148 ft 458 kts 356°
2026-04-28 00:48 28.07846 119.56132 36135 ft 458 kts 356°
2026-04-28 00:49 28.14221 119.56377 36128 ft 460 kts 358°
2026-04-28 00:49 28.20637 119.56737 36116 ft 460 kts 358°
2026-04-28 00:50 28.27058 119.57098 36109 ft 459 kts 358°
2026-04-28 00:50 28.33452 119.57455 36096 ft 460 kts 358°
2026-04-28 00:51 28.39877 119.57811 36089 ft 460 kts 358°
2026-04-28 00:51 28.46275 119.58166 36089 ft 461 kts 358°
2026-04-28 00:52 28.52682 119.58558 36079 ft 461 kts 358°
2026-04-28 00:52 28.59087 119.58956 36089 ft 461 kts 358°
2026-04-28 00:53 28.65509 119.59354 36095 ft 461 kts 358°
2026-04-28 00:53 28.71927 119.59753 36104 ft 461 kts 358°
2026-04-28 00:54 28.78372 119.60152 36102 ft 462 kts 358°
2026-04-28 00:54 28.84775 119.60551 36088 ft 462 kts 358°
2026-04-28 00:55 28.91246 119.60951 36076 ft 462 kts 358°
2026-04-28 00:55 28.97676 119.61350 36071 ft 462 kts 358°
2026-04-28 00:56 29.04128 119.61754 36059 ft 463 kts 357°
2026-04-28 00:56 29.10587 119.62154 36062 ft 462 kts 358°
2026-04-28 00:57 29.17038 119.62547 36068 ft 463 kts 357°
2026-04-28 00:57 29.23473 119.62938 36069 ft 462 kts 357°
2026-04-28 00:58 29.29863 119.63329 36074 ft 462 kts 357°
2026-04-28 00:58 29.36318 119.63723 36080 ft 463 kts 357°
2026-04-28 00:59 29.42767 119.64119 36092 ft 462 kts 357°
2026-04-28 00:59 29.49189 119.64420 36090 ft 461 kts 354°
2026-04-28 01:00 29.55575 119.64046 36101 ft 455 kts 348°
2026-04-28 01:00 29.61809 119.62896 36099 ft 450 kts 342°
2026-04-28 01:01 29.67861 119.61226 36106 ft 449 kts 340°
2026-04-28 01:01 29.73951 119.59489 36103 ft 450 kts 340°
2026-04-28 01:02 29.80024 119.57761 36109 ft 449 kts 340°
2026-04-28 01:02 29.86119 119.56026 36108 ft 450 kts 340°
2026-04-28 01:03 29.92216 119.54290 36108 ft 450 kts 340°
2026-04-28 01:03 29.98279 119.52561 36107 ft 449 kts 340°
2026-04-28 01:04 30.04391 119.50819 36115 ft 450 kts 340°
2026-04-28 01:04 30.10488 119.49077 36110 ft 449 kts 340°
2026-04-28 01:05 30.16572 119.47337 36113 ft 449 kts 340°
2026-04-28 01:05 30.22638 119.45600 36112 ft 449 kts 340°
2026-04-28 01:06 30.28701 119.43861 36110 ft 449 kts 340°
2026-04-28 01:06 30.34799 119.42111 36113 ft 449 kts 340°
2026-04-28 01:07 30.40855 119.40369 36113 ft 449 kts 340°
2026-04-28 01:07 30.46940 119.38618 36116 ft 449 kts 340°
2026-04-28 01:08 30.53049 119.36858 36117 ft 448 kts 340°
2026-04-28 01:08 30.59071 119.35120 36112 ft 449 kts 340°
2026-04-28 01:09 30.65178 119.33354 36111 ft 449 kts 339°
2026-04-28 01:09 30.71253 119.31597 36109 ft 448 kts 339°
2026-04-28 01:10 30.77309 119.29844 36113 ft 449 kts 339°
2026-04-28 01:10 30.83394 119.28078 36116 ft 448 kts 339°
2026-04-28 01:11 30.89449 119.26318 36113 ft 450 kts 339°
2026-04-28 01:11 30.95525 119.24551 36113 ft 449 kts 339°
2026-04-28 01:12 31.01597 119.22786 36117 ft 448 kts 339°
2026-04-28 01:12 31.07629 119.21024 36112 ft 448 kts 338°
2026-04-28 01:13 31.13716 119.19247 36116 ft 448 kts 339°
2026-04-28 01:13 31.22802 119.16589 36118 ft 448 kts 338°
2026-04-28 01:14 31.28843 119.14819 36123 ft 448 kts 338°
2026-04-28 01:14 31.34905 119.13042 36123 ft 447 kts 338°
2026-04-28 01:15 31.40960 119.11261 36127 ft 447 kts 338°
2026-04-28 01:15 31.46973 119.09493 36128 ft 446 kts 338°
2026-04-28 01:16 31.52972 119.07725 36130 ft 446 kts 338°
2026-04-28 01:16 31.59000 119.05923 36131 ft 445 kts 338°
2026-04-28 01:17 31.64959 119.03966 36140 ft 441 kts 334°
2026-04-28 01:17 31.70690 119.01518 36139 ft 437 kts 331°
2026-04-28 01:18 31.76378 118.98873 36141 ft 435 kts 329°
2026-04-28 01:18 31.81752 118.95725 36141 ft 428 kts 323°
2026-04-28 01:19 31.86777 118.91987 36145 ft 424 kts 318°
2026-04-28 01:19 31.91409 118.87760 36143 ft 417 kts 311°
2026-04-28 01:20 31.95101 118.82596 36145 ft 408 kts 298°
2026-04-28 01:20 31.97557 118.76668 36145 ft 401 kts 286°
2026-04-28 01:21 31.98738 118.70331 36146 ft 399 kts 275°
2026-04-28 01:21 31.98859 118.63783 36145 ft 399 kts 270°
2026-04-28 01:22 31.98831 118.57249 36144 ft 399 kts 270°
2026-04-28 01:22 31.98785 118.50723 36141 ft 399 kts 270°
2026-04-28 01:23 31.98730 118.44208 36142 ft 399 kts 270°
2026-04-28 01:23 31.98670 118.37678 36141 ft 400 kts 270°
2026-04-28 01:24 31.98604 118.31124 36145 ft 399 kts 269°
2026-04-28 01:24 31.98538 118.24618 36143 ft 400 kts 269°
2026-04-28 01:25 31.98469 118.18059 36143 ft 400 kts 269°
2026-04-28 01:25 31.98391 118.11532 36142 ft 400 kts 269°
2026-04-28 01:26 31.98313 118.04961 36143 ft 400 kts 269°
2026-04-28 01:26 31.98325 117.98420 36140 ft 401 kts 270°
2026-04-28 01:27 31.98376 117.91876 36141 ft 401 kts 270°
2026-04-28 01:27 31.98418 117.85307 36141 ft 401 kts 270°
2026-04-28 01:28 31.98453 117.78764 36141 ft 401 kts 270°
2026-04-28 01:28 31.98484 117.72181 36141 ft 401 kts 270°
2026-04-28 01:29 31.98512 117.65643 36139 ft 402 kts 270°
2026-04-28 01:29 31.98535 117.59051 36141 ft 402 kts 270°
2026-04-28 01:30 31.98552 117.52490 36141 ft 403 kts 270°
2026-04-28 01:30 31.99051 117.45915 36142 ft 403 kts 279°
2026-04-28 01:31 32.00603 117.39553 36141 ft 406 kts 289°
2026-04-28 01:31 32.03176 117.33588 36146 ft 412 kts 298°
2026-04-28 01:32 32.06666 117.28198 36147 ft 415 kts 304°
2026-04-28 01:32 32.10381 117.22980 36146 ft 415 kts 305°
2026-04-28 01:33 32.14086 117.17783 36150 ft 414 kts 305°
2026-04-28 01:33 32.17786 117.12589 36147 ft 415 kts 305°
2026-04-28 01:34 32.21519 117.07345 36152 ft 414 kts 304°
2026-04-28 01:34 32.25222 117.02134 36151 ft 414 kts 305°
2026-04-28 01:35 32.28914 116.96932 36149 ft 415 kts 305°
2026-04-28 01:35 32.32614 116.91713 36150 ft 415 kts 305°
2026-04-28 01:36 32.36314 116.86484 36151 ft 415 kts 305°
2026-04-28 01:36 32.40013 116.81252 36151 ft 413 kts 305°
2026-04-28 01:37 32.43690 116.76044 36152 ft 413 kts 304°
2026-04-28 01:37 32.47384 116.70804 36153 ft 414 kts 305°
2026-04-28 01:38 32.51066 116.65573 36151 ft 414 kts 304°
2026-04-28 01:38 32.54754 116.60324 36151 ft 414 kts 304°
2026-04-28 01:39 32.58448 116.55058 36151 ft 415 kts 304°
2026-04-28 01:39 32.62120 116.49819 36149 ft 415 kts 304°
2026-04-28 01:40 32.65799 116.44566 36152 ft 414 kts 304°
2026-04-28 01:40 32.69476 116.39300 36152 ft 414 kts 304°
2026-04-28 01:41 32.73157 116.34021 36150 ft 415 kts 303°
2026-04-28 01:41 32.76850 116.28716 36153 ft 414 kts 304°
2026-04-28 01:42 32.80302 116.23302 36148 ft 410 kts 297°
2026-04-28 01:42 32.82950 116.17375 36150 ft 405 kts 290°
2026-04-28 01:43 32.84752 116.11068 36148 ft 402 kts 281°
2026-04-28 01:43 32.85685 116.04536 36146 ft 401 kts 275°
2026-04-28 01:44 32.86275 115.97976 36143 ft 401 kts 274°
2026-04-28 01:44 32.86839 115.91373 36139 ft 401 kts 274°
2026-04-28 01:45 32.87400 115.84800 36140 ft 401 kts 276°
2026-04-28 01:45 32.88589 115.78332 36140 ft 404 kts 284°
2026-04-28 01:46 32.90689 115.72101 36138 ft 407 kts 292°
2026-04-28 01:46 32.93658 115.66342 36134 ft 414 kts 301°
2026-04-28 01:47 32.97351 115.61038 36137 ft 417 kts 304°
2026-04-28 01:47 33.01149 115.55822 36138 ft 416 kts 305°
2026-04-28 01:48 33.04943 115.50615 36132 ft 416 kts 305°
2026-04-28 01:48 33.08746 115.45393 36135 ft 416 kts 305°
2026-04-28 01:49 33.12543 115.40176 36135 ft 416 kts 305°
2026-04-28 01:49 33.16332 115.34962 36135 ft 415 kts 304°
2026-04-28 01:50 33.20131 115.29725 36132 ft 417 kts 304°
2026-04-28 01:50 33.24531 115.23647 36135 ft 415 kts 304°
2026-04-28 01:51 33.27675 115.19305 36134 ft 415 kts 304°
2026-04-28 01:51 33.31468 115.14050 36131 ft 416 kts 304°
2026-04-28 01:52 33.35236 115.08823 36131 ft 415 kts 304°
2026-04-28 01:52 33.38982 115.03621 36131 ft 414 kts 304°
2026-04-28 01:53 33.42755 114.98376 36130 ft 415 kts 304°
2026-04-28 01:53 33.46504 114.93156 36136 ft 414 kts 304°
2026-04-28 01:54 33.50256 114.87920 36135 ft 415 kts 304°
2026-04-28 01:54 33.54027 114.82650 36140 ft 414 kts 304°
2026-04-28 01:55 33.57766 114.77422 36141 ft 415 kts 304°
2026-04-28 01:55 33.61541 114.72208 36140 ft 413 kts 305°
2026-04-28 01:56 33.65447 114.67133 36138 ft 416 kts 308°
2026-04-28 01:56 33.69760 114.62436 36144 ft 424 kts 313°
2026-04-28 01:57 33.74356 114.57998 36142 ft 423 kts 314°
2026-04-28 01:57 33.78939 114.53607 36143 ft 421 kts 314°
2026-04-28 01:58 33.83543 114.49210 36143 ft 423 kts 314°
2026-04-28 01:58 33.88175 114.44859 36147 ft 422 kts 314°
2026-04-28 01:59 33.92791 114.40524 36144 ft 420 kts 314°
2026-04-28 01:59 33.97420 114.36160 36145 ft 422 kts 314°
2026-04-28 02:00 34.02011 114.31825 36155 ft 420 kts 314°
2026-04-28 02:00 34.06613 114.27475 36152 ft 418 kts 314°
2026-04-28 02:01 34.11187 114.23141 36149 ft 418 kts 313°
2026-04-28 02:01 34.15774 114.18780 36155 ft 418 kts 314°
2026-04-28 02:02 34.20349 114.14439 36158 ft 418 kts 314°
2026-04-28 02:02 34.24905 114.10100 36158 ft 416 kts 313°
2026-04-28 02:03 34.29445 114.05775 36164 ft 416 kts 314°
2026-04-28 02:03 34.33975 114.01445 36169 ft 413 kts 314°
2026-04-28 02:04 34.38490 113.97134 36175 ft 414 kts 314°
2026-04-28 02:04 34.43014 113.92796 36177 ft 413 kts 314°
2026-04-28 02:05 34.47704 113.88697 36167 ft 420 kts 319°
2026-04-28 02:05 34.52828 113.85192 36179 ft 430 kts 324°
2026-04-28 02:06 34.58389 113.82360 36177 ft 435 kts 331°
2026-04-28 02:06 34.64261 113.80218 36178 ft 441 kts 335°
2026-04-28 02:07 34.70177 113.78270 36180 ft 443 kts 335°
2026-04-28 02:07 34.76144 113.76305 36180 ft 441 kts 335°
2026-04-28 02:08 34.82072 113.74347 36179 ft 439 kts 335°
2026-04-28 02:08 34.87915 113.72230 36179 ft 435 kts 331°
2026-04-28 02:09 34.93621 113.69744 36180 ft 434 kts 330°
2026-04-28 02:09 34.99284 113.67242 36178 ft 434 kts 331°
2026-04-28 02:10 35.04968 113.64733 36178 ft 434 kts 330°
2026-04-28 02:10 35.10692 113.62203 36181 ft 435 kts 330°
2026-04-28 02:11 35.16376 113.59689 36177 ft 435 kts 330°
2026-04-28 02:11 35.22065 113.57168 36178 ft 433 kts 330°
2026-04-28 02:12 35.27746 113.54647 36181 ft 434 kts 330°
2026-04-28 02:12 35.33417 113.52123 36189 ft 434 kts 330°
2026-04-28 02:13 35.39070 113.49609 36204 ft 433 kts 329°
2026-04-28 02:13 35.44739 113.47079 36217 ft 432 kts 329°
2026-04-28 02:14 35.50420 113.44566 36228 ft 432 kts 330°
2026-04-28 02:14 35.56030 113.42080 36232 ft 431 kts 329°
2026-04-28 02:15 35.64544 113.38295 36231 ft 434 kts 329°
2026-04-28 02:16 35.70213 113.35771 36232 ft 431 kts 329°
2026-04-28 02:16 35.75846 113.33257 36235 ft 429 kts 328°
2026-04-28 02:17 35.81501 113.30723 36232 ft 431 kts 328°
2026-04-28 02:17 35.87091 113.28224 36234 ft 427 kts 328°
2026-04-28 02:18 35.92701 113.25723 36232 ft 429 kts 328°
2026-04-28 02:18 35.98288 113.23223 36229 ft 427 kts 328°
2026-04-28 02:19 36.03897 113.20711 36225 ft 428 kts 328°
2026-04-28 02:19 36.09509 113.18192 36223 ft 428 kts 328°
2026-04-28 02:20 36.15123 113.15662 36222 ft 427 kts 327°
2026-04-28 02:20 36.20549 113.12740 36222 ft 418 kts 322°
2026-04-28 02:21 36.25571 113.09264 36219 ft 411 kts 316°
2026-04-28 02:21 36.30209 113.05263 36225 ft 402 kts 312°
2026-04-28 02:22 36.34523 113.00930 36221 ft 401 kts 310°
2026-04-28 02:22 36.38831 112.96529 36225 ft 399 kts 310°
2026-04-28 02:23 36.43101 112.92157 36223 ft 399 kts 310°
2026-04-28 02:23 36.47400 112.87745 36223 ft 400 kts 310°
2026-04-28 02:24 36.51694 112.83338 36226 ft 401 kts 310°
2026-04-28 02:24 36.55987 112.78927 36225 ft 400 kts 310°
2026-04-28 02:25 36.60255 112.74525 36230 ft 399 kts 310°
2026-04-28 02:25 36.64552 112.70096 36229 ft 400 kts 309°
2026-04-28 02:26 36.68825 112.65679 36240 ft 400 kts 309°
2026-04-28 02:26 36.73102 112.61252 36240 ft 400 kts 309°
2026-04-28 02:27 36.77359 112.56838 36246 ft 399 kts 309°
2026-04-28 02:27 36.81643 112.52388 36252 ft 398 kts 310°
2026-04-28 02:28 36.85887 112.47970 36258 ft 399 kts 310°
2026-04-28 02:28 36.90145 112.43540 36261 ft 400 kts 309°
2026-04-28 02:29 36.94402 112.39098 36264 ft 399 kts 309°
2026-04-28 02:29 36.98642 112.34666 36265 ft 399 kts 309°
2026-04-28 02:30 37.02904 112.30205 36265 ft 398 kts 309°
2026-04-28 02:30 37.07145 112.25764 36261 ft 398 kts 308°
2026-04-28 02:31 37.11459 112.21383 36260 ft 401 kts 311°
2026-04-28 02:31 37.15891 112.17181 36258 ft 401 kts 311°
2026-04-28 02:32 37.20337 112.12962 36256 ft 401 kts 311°
2026-04-28 02:32 37.24795 112.08728 36262 ft 402 kts 311°
2026-04-28 02:33 37.29246 112.04488 36262 ft 401 kts 311°
2026-04-28 02:33 37.33661 112.00275 36264 ft 400 kts 311°
2026-04-28 02:34 37.38113 111.96027 36265 ft 401 kts 311°
2026-04-28 02:34 37.42532 111.91797 36263 ft 400 kts 311°
2026-04-28 02:35 37.46967 111.87546 36267 ft 399 kts 311°
2026-04-28 02:35 37.51377 111.83317 36268 ft 399 kts 311°
2026-04-28 02:36 37.55791 111.79073 36266 ft 398 kts 311°
2026-04-28 02:36 37.60187 111.74839 36266 ft 399 kts 311°
2026-04-28 02:37 37.64617 111.70562 36265 ft 400 kts 311°
2026-04-28 02:37 37.69001 111.66335 36263 ft 397 kts 310°
2026-04-28 02:38 37.73392 111.62089 36266 ft 397 kts 311°
2026-04-28 02:38 37.77783 111.57819 36264 ft 398 kts 309°
2026-04-28 02:39 37.81589 111.52957 36267 ft 380 kts 299°
2026-04-28 02:39 37.84363 111.47456 36264 ft 367 kts 289°
2026-04-28 02:40 37.86158 111.41503 36264 ft 359 kts 279°
2026-04-28 02:40 37.87017 111.35350 36264 ft 356 kts 275°
2026-04-28 02:41 37.87608 111.29140 36267 ft 356 kts 274°
2026-04-28 02:41 37.88176 111.22903 36265 ft 357 kts 274°
2026-04-28 02:42 37.88727 111.16634 36267 ft 357 kts 273°
2026-04-28 02:42 37.89270 111.10406 36267 ft 358 kts 273°
2026-04-28 02:43 37.89800 111.04182 36267 ft 358 kts 273°
2026-04-28 02:43 37.90332 110.97900 36268 ft 358 kts 273°
2026-04-28 02:44 37.90860 110.91648 36268 ft 359 kts 273°
2026-04-28 02:44 37.91385 110.85355 36272 ft 358 kts 273°
2026-04-28 02:45 37.91908 110.79102 36279 ft 359 kts 272°
2026-04-28 02:45 37.92427 110.72810 36279 ft 359 kts 272°
2026-04-28 02:46 37.92940 110.66560 36281 ft 359 kts 273°
2026-04-28 02:46 37.93562 110.60269 36281 ft 362 kts 274°
2026-04-28 02:47 37.94209 110.53963 36282 ft 362 kts 274°
2026-04-28 02:47 37.94849 110.47663 36288 ft 361 kts 274°
2026-04-28 02:48 37.95480 110.41357 36288 ft 361 kts 274°
2026-04-28 02:48 37.96107 110.35068 36284 ft 361 kts 274°
2026-04-28 02:49 37.96740 110.28736 36293 ft 362 kts 273°
2026-04-28 02:49 37.97362 110.22423 36287 ft 362 kts 273°
2026-04-28 02:50 37.97984 110.16087 36292 ft 362 kts 272°
2026-04-28 02:50 37.98600 110.09734 36289 ft 363 kts 274°
2026-04-28 02:51 37.99220 110.03371 36293 ft 364 kts 274°
2026-04-28 02:51 37.99828 109.97041 36286 ft 364 kts 273°
2026-04-28 02:52 38.00438 109.90655 36292 ft 363 kts 274°
2026-04-28 02:52 38.01040 109.84335 36295 ft 364 kts 273°
2026-04-28 02:53 38.01643 109.77954 36309 ft 363 kts 273°
2026-04-28 02:53 38.02239 109.71602 36298 ft 364 kts 274°
2026-04-28 02:54 38.02840 109.65221 36310 ft 364 kts 273°
2026-04-28 02:54 38.03427 109.58879 36306 ft 364 kts 273°
2026-04-28 02:55 38.04015 109.52509 36311 ft 365 kts 273°
2026-04-28 02:55 38.04604 109.46094 36312 ft 365 kts 273°
2026-04-28 02:56 38.05190 109.39700 36312 ft 365 kts 273°
2026-04-28 02:56 38.05765 109.33330 36319 ft 365 kts 272°
2026-04-28 02:57 38.06340 109.26935 36311 ft 365 kts 272°
2026-04-28 02:57 38.06914 109.20578 36322 ft 364 kts 272°
2026-04-28 02:58 38.07486 109.14195 36322 ft 366 kts 273°
2026-04-28 02:58 38.08053 109.07787 36320 ft 366 kts 272°
2026-04-28 02:59 38.08618 109.01385 36320 ft 364 kts 273°
2026-04-28 02:59 38.09176 108.95024 36327 ft 364 kts 272°
2026-04-28 03:00 38.09735 108.88626 36332 ft 365 kts 272°
2026-04-28 03:00 38.10281 108.82267 36332 ft 365 kts 272°
2026-04-28 03:01 38.10831 108.75848 36335 ft 364 kts 272°
2026-04-28 03:01 38.11378 108.69482 36339 ft 365 kts 272°
2026-04-28 03:02 38.11921 108.63050 36334 ft 364 kts 272°
2026-04-28 03:02 38.12457 108.56669 36338 ft 364 kts 272°
2026-04-28 03:03 38.12996 108.50256 36338 ft 365 kts 272°
2026-04-28 03:03 38.13525 108.43877 36339 ft 364 kts 273°
2026-04-28 03:04 38.14055 108.37489 36342 ft 365 kts 272°
2026-04-28 03:04 38.14576 108.31078 36338 ft 366 kts 272°
2026-04-28 03:05 38.15190 108.24681 36343 ft 366 kts 272°
2026-04-28 03:05 38.15834 108.18274 36342 ft 365 kts 272°
2026-04-28 03:06 38.16470 108.11873 36343 ft 366 kts 273°
2026-04-28 03:06 38.17098 108.05456 36341 ft 365 kts 273°
2026-04-28 03:07 38.17728 107.99031 36348 ft 366 kts 272°
2026-04-28 03:07 38.18339 107.92650 36348 ft 365 kts 273°
2026-04-28 03:08 38.18957 107.86243 36349 ft 366 kts 273°
2026-04-28 03:08 38.19571 107.79806 36347 ft 367 kts 272°
2026-04-28 03:09 38.20196 107.73392 36354 ft 368 kts 274°
2026-04-28 03:09 38.20934 107.66982 36350 ft 367 kts 274°
2026-04-28 03:10 38.21675 107.60556 36348 ft 368 kts 274°
2026-04-28 03:10 38.22414 107.54109 36352 ft 368 kts 274°
2026-04-28 03:11 38.23137 107.47720 36358 ft 367 kts 274°
2026-04-28 03:11 38.23860 107.41296 36354 ft 367 kts 274°
2026-04-28 03:12 38.24581 107.34877 36357 ft 368 kts 273°
2026-04-28 03:12 38.25299 107.28423 36356 ft 369 kts 273°
2026-04-28 03:13 38.26008 107.22002 36354 ft 368 kts 273°
2026-04-28 03:13 38.26722 107.15561 36350 ft 369 kts 273°
2026-04-28 03:14 38.27428 107.09090 36352 ft 368 kts 273°
2026-04-28 03:14 38.28133 107.02609 36358 ft 369 kts 274°
2026-04-28 03:15 38.28834 106.96140 36358 ft 369 kts 274°
2026-04-28 03:15 38.29534 106.89681 36357 ft 370 kts 273°
2026-04-28 03:16 38.30227 106.83201 36358 ft 368 kts 274°
2026-04-28 03:16 38.30915 106.76774 36356 ft 370 kts 273°
2026-04-28 03:17 38.31605 106.70272 36357 ft 371 kts 273°
2026-04-28 03:17 38.32631 106.60550 36361 ft 371 kts 274°
2026-04-28 03:18 38.33313 106.54042 36366 ft 372 kts 274°
2026-04-28 03:18 38.34027 106.47496 36370 ft 374 kts 275°
2026-04-28 03:19 38.35108 106.41012 36362 ft 375 kts 279°
2026-04-28 03:19 38.36636 106.34633 36364 ft 380 kts 282°
2026-04-28 03:20 38.38465 106.28338 36371 ft 382 kts 284°
2026-04-28 03:20 38.40346 106.21966 36369 ft 382 kts 284°
2026-04-28 03:21 38.42226 106.15641 36372 ft 383 kts 284°
2026-04-28 03:21 38.44114 106.09289 36378 ft 384 kts 285°
2026-04-28 03:22 38.46009 106.02933 36374 ft 382 kts 285°
2026-04-28 03:22 38.47891 105.96604 36375 ft 385 kts 285°
2026-04-28 03:23 38.49789 105.90218 36380 ft 385 kts 285°
2026-04-28 03:23 38.51673 105.83834 36378 ft 385 kts 284°
2026-04-28 03:24 38.53559 105.77447 36385 ft 385 kts 284°
2026-04-28 03:24 38.55447 105.71031 36386 ft 386 kts 284°
2026-04-28 03:25 38.57332 105.64610 36390 ft 387 kts 285°
2026-04-28 03:25 38.59216 105.58169 36388 ft 386 kts 285°
2026-04-28 03:26 38.61102 105.51713 36393 ft 388 kts 285°
2026-04-28 03:26 38.62983 105.45258 36391 ft 388 kts 285°
2026-04-28 03:27 38.64858 105.38811 36392 ft 390 kts 285°
2026-04-28 03:27 38.67052 105.31232 36393 ft 389 kts 284°
2026-04-28 03:28 38.68628 105.25790 36388 ft 391 kts 285°
2026-04-28 03:28 38.70499 105.19297 36397 ft 392 kts 285°
2026-04-28 03:29 38.72379 105.12769 36394 ft 391 kts 285°
2026-04-28 03:29 38.74290 105.06241 36392 ft 392 kts 286°
2026-04-28 03:30 38.76311 104.99711 36442 ft 393 kts 287°
2026-04-28 03:30 38.77319 104.96453 36276 ft 393 kts 287°
2026-04-28 03:30 38.78327 104.93191 36355 ft 395 kts 287°
2026-04-28 03:31 38.80340 104.86655 36387 ft 396 kts 286°
2026-04-28 03:31 38.82345 104.80107 36398 ft 395 kts 287°
2026-04-28 03:32 38.84357 104.73521 36398 ft 396 kts 287°
2026-04-28 03:32 38.86363 104.66936 36403 ft 397 kts 287°
2026-04-28 03:33 38.88358 104.60387 36375 ft 398 kts 287°
2026-04-28 03:33 38.90364 104.53762 36399 ft 398 kts 287°
2026-04-28 03:34 38.91365 104.50459 36631 ft 398 kts 287°
2026-04-28 03:34 38.92368 104.47150 36480 ft 397 kts 287°
2026-04-28 03:34 38.94352 104.40560 36417 ft 397 kts 287°
2026-04-28 03:35 38.96343 104.33955 36410 ft 397 kts 287°
2026-04-28 03:35 38.98327 104.27348 36406 ft 398 kts 286°
2026-04-28 03:36 39.00310 104.20721 36405 ft 397 kts 287°
2026-04-28 03:36 39.02291 104.14089 36410 ft 398 kts 287°
2026-04-28 03:37 39.04275 104.07439 36406 ft 398 kts 287°
2026-04-28 03:37 39.05264 104.04125 36172 ft 399 kts 287°
2026-04-28 03:37 39.06260 104.00774 36581 ft 401 kts 287°
2026-04-28 03:38 39.07245 103.97453 36224 ft 400 kts 287°
2026-04-28 03:38 39.08243 103.94084 36343 ft 402 kts 287°
2026-04-28 03:38 39.10240 103.87341 36402 ft 402 kts 287°
2026-04-28 03:39 39.12218 103.80640 36393 ft 403 kts 287°
2026-04-28 03:39 39.14199 103.73905 36410 ft 403 kts 287°
2026-04-28 03:40 39.16183 103.67152 36404 ft 404 kts 287°
2026-04-28 03:40 39.18163 103.60389 36399 ft 403 kts 287°
2026-04-28 03:41 39.20142 103.53617 36412 ft 405 kts 287°
2026-04-28 03:41 39.22115 103.46843 36400 ft 405 kts 287°
2026-04-28 03:42 39.24100 103.40021 36406 ft 406 kts 287°
2026-04-28 03:42 39.26070 103.33221 36408 ft 407 kts 287°
2026-04-28 03:43 39.28053 103.26364 36412 ft 407 kts 287°
2026-04-28 03:43 39.30029 103.19512 36403 ft 408 kts 287°
2026-04-28 03:44 39.31988 103.12694 36398 ft 408 kts 287°
2026-04-28 03:44 39.33963 103.05814 36417 ft 408 kts 287°
2026-04-28 03:45 39.35941 102.98898 36378 ft 410 kts 287°
2026-04-28 03:45 39.37946 102.92027 36399 ft 410 kts 287°
2026-04-28 03:46 39.39954 102.85131 36414 ft 411 kts 287°
2026-04-28 03:46 39.41726 102.78142 36380 ft 410 kts 282°
2026-04-28 03:47 39.42962 102.71005 36400 ft 410 kts 278°
2026-04-28 03:47 39.43886 102.63751 36391 ft 410 kts 277°
2026-04-28 03:48 39.44737 102.56433 36383 ft 410 kts 277°
2026-04-28 03:48 39.45573 102.49178 36400 ft 411 kts 277°
2026-04-28 03:49 39.46407 102.41884 36371 ft 411 kts 277°
2026-04-28 03:49 39.47245 102.34558 36393 ft 412 kts 276°
2026-04-28 03:50 39.48077 102.27230 36386 ft 412 kts 276°
2026-04-28 03:50 39.48901 102.19933 36379 ft 412 kts 277°
2026-04-28 03:51 39.49727 102.12578 36385 ft 414 kts 276°
2026-04-28 03:51 39.50552 102.05195 36380 ft 414 kts 277°
2026-04-28 03:52 39.51372 101.97811 36358 ft 416 kts 276°
2026-04-28 03:52 39.52185 101.90422 36376 ft 416 kts 277°
2026-04-28 03:53 39.52994 101.83048 36370 ft 417 kts 277°
2026-04-28 03:53 39.53804 101.75616 36389 ft 418 kts 277°
2026-04-28 03:54 39.54609 101.68187 36371 ft 419 kts 277°
2026-04-28 03:54 39.55413 101.60728 36388 ft 419 kts 277°
2026-04-28 03:55 39.56212 101.53263 36371 ft 419 kts 277°
2026-04-28 03:55 39.57006 101.45791 36390 ft 421 kts 277°
2026-04-28 03:56 39.57802 101.38262 36377 ft 420 kts 277°
2026-04-28 03:56 39.58588 101.30774 36359 ft 422 kts 277°
2026-04-28 03:57 39.59379 101.23193 36390 ft 423 kts 277°
2026-04-28 03:57 39.60156 101.15700 36354 ft 423 kts 277°
2026-04-28 03:58 39.60939 101.08115 36355 ft 424 kts 277°
2026-04-28 03:58 39.61710 101.00555 36430 ft 426 kts 277°
2026-04-28 03:59 39.62483 100.92969 36377 ft 425 kts 277°
2026-04-28 03:59 39.63250 100.85374 36380 ft 426 kts 277°
2026-04-28 04:00 39.64012 100.77774 36387 ft 425 kts 277°
2026-04-28 04:00 39.64766 100.70216 36374 ft 426 kts 277°
2026-04-28 04:01 39.65520 100.62584 36396 ft 428 kts 277°
2026-04-28 04:01 39.66273 100.54931 36370 ft 426 kts 277°
2026-04-28 04:02 39.67020 100.47288 36360 ft 428 kts 277°
2026-04-28 04:02 39.67759 100.39651 36378 ft 428 kts 278°
2026-04-28 04:03 39.68498 100.31986 36367 ft 429 kts 277°
2026-04-28 04:03 39.69234 100.24284 36361 ft 430 kts 277°
2026-04-28 04:04 39.69965 100.16582 36383 ft 431 kts 277°
2026-04-28 04:04 39.70694 100.08843 36359 ft 432 kts 278°
2026-04-28 04:05 39.71418 100.01109 36382 ft 432 kts 278°
2026-04-28 04:05 39.72133 99.93415 36404 ft 433 kts 278°
2026-04-28 04:06 39.72847 99.85666 36389 ft 432 kts 278°
2026-04-28 04:06 39.73557 99.77900 36324 ft 432 kts 278°
2026-04-28 04:07 39.74256 99.70217 36402 ft 432 kts 278°
2026-04-28 04:07 39.74954 99.62473 36340 ft 433 kts 278°
2026-04-28 04:08 39.75648 99.54715 36383 ft 433 kts 278°
2026-04-28 04:08 39.76335 99.46965 36381 ft 433 kts 278°
2026-04-28 04:09 39.77020 99.39204 36370 ft 430 kts 278°
2026-04-28 04:09 39.77355 99.35371 36589 ft 429 kts 278°
2026-04-28 04:09 39.77692 99.31505 36488 ft 429 kts 278°
2026-04-28 04:10 39.78359 99.23807 36410 ft 428 kts 278°
2026-04-28 04:10 39.79018 99.16158 36399 ft 428 kts 278°
2026-04-28 04:11 39.79673 99.08492 36393 ft 427 kts 278°
2026-04-28 04:11 39.80323 99.00805 36389 ft 427 kts 278°
2026-04-28 04:12 39.80935 98.93192 36375 ft 427 kts 277°
2026-04-28 04:12 39.81421 98.85519 36389 ft 426 kts 277°
2026-04-28 04:13 39.81901 98.77825 36415 ft 425 kts 277°
2026-04-28 04:13 39.82383 98.70154 36379 ft 426 kts 277°
2026-04-28 04:14 39.82859 98.62508 36387 ft 425 kts 277°
2026-04-28 04:14 39.83332 98.54859 36390 ft 425 kts 277°
2026-04-28 04:15 39.83837 98.47223 36402 ft 424 kts 280°
2026-04-28 04:16 39.86151 98.36166 36382 ft 425 kts 295°
2026-04-28 04:16 39.88938 98.29430 36385 ft 423 kts 304°
2026-04-28 04:17 39.92549 98.23404 36366 ft 423 kts 310°
2026-04-28 04:17 39.96377 98.17561 36351 ft 423 kts 310°
2026-04-28 04:17 39.98291 98.14645 36209 ft 423 kts 310°
2026-04-28 04:18 40.00199 98.11733 36302 ft 424 kts 310°
2026-04-28 04:18 40.04020 98.05892 36338 ft 424 kts 310°
2026-04-28 04:19 40.07845 98.00033 36349 ft 424 kts 311°
2026-04-28 04:19 40.11681 97.94147 36352 ft 424 kts 310°
2026-04-28 04:20 40.15497 97.88280 36336 ft 424 kts 311°
2026-04-28 04:20 40.19296 97.82424 36351 ft 424 kts 311°
2026-04-28 04:21 40.23128 97.76512 36352 ft 424 kts 311°
2026-04-28 04:21 40.26912 97.70658 36355 ft 424 kts 311°
2026-04-28 04:22 40.30724 97.64752 36344 ft 424 kts 311°
2026-04-28 04:22 40.34524 97.58849 36351 ft 424 kts 311°
2026-04-28 04:23 40.38323 97.52940 36346 ft 424 kts 311°
2026-04-28 04:23 40.42110 97.47035 36346 ft 424 kts 311°
2026-04-28 04:24 40.45890 97.41130 36350 ft 424 kts 311°
2026-04-28 04:24 40.49730 97.35237 36351 ft 424 kts 312°
2026-04-28 04:25 40.53574 97.29392 36348 ft 424 kts 311°
2026-04-28 04:25 40.57428 97.23516 36345 ft 424 kts 311°
2026-04-28 04:26 40.61266 97.17647 36344 ft 424 kts 311°
2026-04-28 04:26 40.65100 97.11766 36345 ft 424 kts 311°
2026-04-28 04:27 40.68940 97.05866 36343 ft 424 kts 311°
2026-04-28 04:27 40.72769 96.99972 36340 ft 423 kts 311°
2026-04-28 04:28 40.76598 96.94064 36335 ft 423 kts 311°
2026-04-28 04:28 40.80400 96.88188 36340 ft 424 kts 311°
2026-04-28 04:29 40.84235 96.82248 36340 ft 424 kts 311°
2026-04-28 04:29 40.88055 96.76320 36330 ft 423 kts 311°
2026-04-28 04:30 40.91846 96.70426 36336 ft 421 kts 312°
2026-04-28 04:30 40.95627 96.64538 36329 ft 420 kts 312°
2026-04-28 04:31 40.99412 96.58628 36326 ft 419 kts 312°
2026-04-28 04:31 41.03165 96.52760 36316 ft 419 kts 312°
2026-04-28 04:32 41.06927 96.46866 36319 ft 419 kts 312°
2026-04-28 04:32 41.10698 96.40949 36323 ft 420 kts 312°
2026-04-28 04:33 41.14450 96.35045 36321 ft 420 kts 312°
2026-04-28 04:33 41.18209 96.29119 36321 ft 420 kts 311°
2026-04-28 04:34 41.21967 96.23186 36590 ft 420 kts 311°
2026-04-28 04:34 41.23829 96.20241 36413 ft 418 kts 311°
2026-04-28 04:34 41.25699 96.17281 36350 ft 418 kts 311°
2026-04-28 04:35 41.29431 96.11364 36326 ft 418 kts 311°
2026-04-28 04:35 41.33150 96.05458 36321 ft 418 kts 311°
2026-04-28 04:36 41.36879 95.99522 36325 ft 418 kts 311°
2026-04-28 04:36 41.40608 95.93578 36328 ft 418 kts 311°
2026-04-28 04:37 41.44331 95.87628 36335 ft 418 kts 312°
2026-04-28 04:37 41.48044 95.81685 36332 ft 418 kts 312°
2026-04-28 04:38 41.51768 95.75710 36342 ft 419 kts 311°
2026-04-28 04:38 41.55486 95.69736 36338 ft 418 kts 311°
2026-04-28 04:39 41.59184 95.63778 36332 ft 418 kts 312°
2026-04-28 04:39 41.62894 95.57792 36336 ft 419 kts 312°
2026-04-28 04:40 41.66605 95.51791 36341 ft 419 kts 312°
2026-04-28 04:40 41.70312 95.45785 36345 ft 419 kts 311°
2026-04-28 04:41 41.74015 95.39773 36344 ft 419 kts 311°
2026-04-28 04:41 41.77718 95.33748 36348 ft 419 kts 311°
2026-04-28 04:42 41.81403 95.27739 36340 ft 419 kts 311°
2026-04-28 04:42 41.85109 95.21685 36342 ft 419 kts 311°
2026-04-28 04:43 41.88886 95.15807 36334 ft 419 kts 313°
2026-04-28 04:43 41.92741 95.09945 36337 ft 418 kts 313°
2026-04-28 04:44 41.96586 95.04082 36315 ft 419 kts 313°
2026-04-28 04:44 42.00454 94.98169 36312 ft 419 kts 313°
2026-04-28 04:45 42.04277 94.92310 36308 ft 419 kts 313°
2026-04-28 04:45 42.08111 94.86423 36307 ft 419 kts 313°
2026-04-28 04:46 42.11965 94.80494 36293 ft 420 kts 313°
2026-04-28 04:46 42.15801 94.74577 36311 ft 421 kts 313°
2026-04-28 04:47 42.19659 94.68618 36288 ft 422 kts 313°
2026-04-28 04:47 42.23508 94.62657 36303 ft 422 kts 313°
2026-04-28 04:48 42.27346 94.56705 36292 ft 423 kts 313°
2026-04-28 04:48 42.31209 94.50700 36290 ft 423 kts 313°
2026-04-28 04:49 42.35037 94.44739 36293 ft 423 kts 313°
2026-04-28 04:49 42.38897 94.38715 36287 ft 424 kts 313°
2026-04-28 04:50 42.42748 94.32690 36294 ft 424 kts 312°
2026-04-28 04:50 42.46610 94.26636 36295 ft 424 kts 312°
2026-04-28 04:51 42.50467 94.20581 36293 ft 425 kts 312°
2026-04-28 04:51 42.54325 94.14509 36291 ft 424 kts 312°
2026-04-28 04:52 42.58156 94.08468 36284 ft 425 kts 312°
2026-04-28 04:52 42.62004 94.02386 36296 ft 425 kts 312°
2026-04-28 04:53 42.65855 93.96287 36295 ft 425 kts 312°
2026-04-28 04:53 42.69701 93.90182 36300 ft 425 kts 312°
2026-04-28 04:54 42.73540 93.84076 36294 ft 425 kts 312°
2026-04-28 04:54 42.77373 93.77966 36299 ft 425 kts 312°
2026-04-28 04:55 42.80987 93.71638 36299 ft 427 kts 306°
2026-04-28 04:55 42.84104 93.64700 36295 ft 428 kts 300°
2026-04-28 04:56 42.86622 93.57337 36290 ft 430 kts 294°
2026-04-28 04:56 42.88619 93.49686 36282 ft 431 kts 291°
2026-04-28 04:57 42.90548 93.41936 36283 ft 431 kts 291°
2026-04-28 04:57 42.92465 93.34207 36266 ft 431 kts 290°
2026-04-28 04:58 42.94372 93.26496 36276 ft 431 kts 290°
2026-04-28 04:58 42.96284 93.18754 36263 ft 431 kts 290°
2026-04-28 04:59 42.98196 93.10979 36255 ft 431 kts 290°
2026-04-28 04:59 43.00093 93.03243 36253 ft 431 kts 290°
2026-04-28 05:00 43.01988 92.95486 36249 ft 432 kts 290°
2026-04-28 05:00 43.03882 92.87708 36250 ft 432 kts 290°
2026-04-28 05:01 43.05770 92.79923 36253 ft 431 kts 290°
2026-04-28 05:01 43.07641 92.72190 36257 ft 431 kts 290°
2026-04-28 05:02 43.09522 92.64387 36250 ft 431 kts 290°
2026-04-28 05:02 43.11385 92.56634 36251 ft 431 kts 290°
2026-04-28 05:03 43.13250 92.48838 36250 ft 431 kts 290°
2026-04-28 05:03 43.15106 92.41058 36246 ft 431 kts 290°
2026-04-28 05:04 43.16958 92.33272 36248 ft 431 kts 290°
2026-04-28 05:04 43.18798 92.25504 36256 ft 431 kts 290°
2026-04-28 05:05 43.20641 92.17697 36246 ft 431 kts 289°
2026-04-28 05:05 43.22480 92.09882 36254 ft 431 kts 289°
2026-04-28 05:06 43.24304 92.02103 36245 ft 431 kts 289°
2026-04-28 05:06 43.26130 91.94285 36240 ft 430 kts 289°
2026-04-28 05:07 43.27947 91.86480 36237 ft 431 kts 289°
2026-04-28 05:07 43.29767 91.78634 36234 ft 431 kts 289°
2026-04-28 05:08 43.31571 91.70832 36231 ft 431 kts 289°
2026-04-28 05:08 43.33375 91.62996 36238 ft 430 kts 289°
2026-04-28 05:09 43.35176 91.55154 36227 ft 431 kts 289°
2026-04-28 05:09 43.36969 91.47311 36224 ft 431 kts 289°
2026-04-28 05:10 43.38744 91.39519 36228 ft 430 kts 289°
2026-04-28 05:10 43.40532 91.31641 36239 ft 430 kts 289°
2026-04-28 05:11 43.42299 91.23819 36242 ft 430 kts 289°
2026-04-28 05:11 43.44062 91.15980 36259 ft 430 kts 289°
2026-04-28 05:12 43.45828 91.08100 36273 ft 430 kts 289°
2026-04-28 05:12 43.47573 91.00283 36285 ft 429 kts 289°
2026-04-28 05:13 43.49323 90.92414 36295 ft 429 kts 289°
2026-04-28 05:13 43.51055 90.84598 36301 ft 429 kts 289°
2026-04-28 05:14 43.52786 90.76759 36304 ft 428 kts 289°
2026-04-28 05:14 43.54521 90.68874 36305 ft 429 kts 289°
2026-04-28 05:15 43.56235 90.61049 36308 ft 428 kts 289°
2026-04-28 05:15 43.57956 90.53168 36310 ft 428 kts 289°
2026-04-28 05:16 43.59661 90.45335 36313 ft 427 kts 289°
2026-04-28 05:16 43.61351 90.37539 36312 ft 428 kts 289°
2026-04-28 05:17 43.63896 90.25739 36307 ft 428 kts 288°
2026-04-28 05:17 43.65580 90.17896 36298 ft 427 kts 289°
2026-04-28 05:18 43.67267 90.10004 36286 ft 427 kts 289°
2026-04-28 05:18 43.69003 90.02176 36264 ft 426 kts 290°
2026-04-28 05:19 43.70786 89.94421 36244 ft 426 kts 290°
2026-04-28 05:19 43.72565 89.86617 36232 ft 426 kts 290°
2026-04-28 05:20 43.74326 89.78843 36219 ft 426 kts 290°
2026-04-28 05:20 43.76099 89.70978 36211 ft 426 kts 290°
2026-04-28 05:21 43.77852 89.63173 36203 ft 426 kts 290°
2026-04-28 05:21 43.79602 89.55347 36205 ft 425 kts 290°
2026-04-28 05:22 43.81361 89.47572 36197 ft 425 kts 290°
2026-04-28 05:22 43.83183 89.39739 36161 ft 422 kts 290°
2026-04-28 05:23 43.84074 89.35898 35813 ft 420 kts 290°
2026-04-28 05:23 43.84970 89.32021 35076 ft 422 kts 290°
2026-04-28 05:23 43.85857 89.28170 34226 ft 426 kts 290°
2026-04-28 05:23 43.86759 89.24259 33630 ft 427 kts 290°
2026-04-28 05:24 43.87672 89.20284 33050 ft 431 kts 290°
2026-04-28 05:24 43.88575 89.16351 32487 ft 430 kts 290°
2026-04-28 05:24 43.89471 89.12425 32199 ft 422 kts 290°
2026-04-28 05:24 43.90353 89.08560 32196 ft 423 kts 290°
2026-04-28 05:25 43.92123 89.00777 32195 ft 425 kts 290°
2026-04-28 05:25 43.93904 88.92919 32202 ft 424 kts 290°
2026-04-28 05:26 43.95657 88.85158 32219 ft 423 kts 289°
2026-04-28 05:26 43.97468 88.77344 32223 ft 423 kts 291°
2026-04-28 05:27 43.99393 88.69605 32225 ft 423 kts 291°
2026-04-28 05:27 44.01295 88.61925 32215 ft 422 kts 291°
2026-04-28 05:28 44.03194 88.54191 32213 ft 422 kts 291°
2026-04-28 05:28 44.05082 88.46461 32220 ft 421 kts 291°
2026-04-28 05:29 44.06963 88.38732 32217 ft 421 kts 291°
2026-04-28 05:29 44.08830 88.31028 32214 ft 421 kts 290°
2026-04-28 05:30 44.09761 88.27180 32032 ft 420 kts 290°
2026-04-28 05:30 44.10696 88.23303 31232 ft 426 kts 290°
2026-04-28 05:30 44.11644 88.19377 30361 ft 431 kts 290°
2026-04-28 05:30 44.12674 88.15489 29575 ft 433 kts 292°
2026-04-28 05:31 44.13751 88.11533 28794 ft 436 kts 292°
2026-04-28 05:31 44.14821 88.07605 28021 ft 439 kts 292°
2026-04-28 05:31 44.15912 88.03588 27284 ft 439 kts 292°
2026-04-28 05:31 44.16954 87.99628 26665 ft 438 kts 288°
2026-04-28 05:32 44.17339 87.95418 26016 ft 441 kts 268°
2026-04-28 05:32 44.16585 87.91292 25397 ft 446 kts 247°
2026-04-28 05:32 44.14825 87.87769 24792 ft 449 kts 230°
2026-04-28 05:32 44.12728 87.84534 24153 ft 446 kts 233°
2026-04-28 05:33 44.10930 87.81091 23563 ft 442 kts 239°
2026-04-28 05:33 44.09367 87.77444 23036 ft 437 kts 243°
2026-04-28 05:33 44.08089 87.73637 22504 ft 430 kts 254°
2026-04-28 05:33 44.07484 87.69595 21986 ft 422 kts 268°
2026-04-28 05:34 44.07599 87.65596 21476 ft 415 kts 281°
2026-04-28 05:34 44.08425 87.61779 20972 ft 409 kts 295°
2026-04-28 05:34 44.09775 87.58311 20473 ft 405 kts 301°
2026-04-28 05:34 44.11232 87.55001 19966 ft 402 kts 302°
2026-04-28 05:35 44.12719 87.51733 19455 ft 399 kts 304°
2026-04-28 05:35 44.14527 87.48854 18940 ft 396 kts 319°
2026-04-28 05:35 44.16859 87.46777 18429 ft 395 kts 335°
2026-04-28 05:35 44.19474 87.45719 17938 ft 395 kts 350°
2026-04-28 05:36 44.22229 87.45736 17427 ft 397 kts
2026-04-28 05:36 44.24879 87.46860 16904 ft 400 kts 23°
2026-04-28 05:36 44.27201 87.49020 16393 ft 403 kts 40°
2026-04-28 05:36 44.28990 87.52064 15882 ft 405 kts 57°
2026-04-28 05:37 44.30054 87.55670 15387 ft 407 kts 75°
2026-04-28 05:37 44.30318 87.59613 14902 ft 407 kts 92°
2026-04-28 05:37 44.29732 87.63441 14486 ft 404 kts 111°
2026-04-28 05:37 44.28353 87.66830 14056 ft 400 kts 129°
2026-04-28 05:38 44.26321 87.69383 13813 ft 389 kts 149°
2026-04-28 05:38 44.23895 87.70792 13815 ft 371 kts 169°
2026-04-28 05:38 44.21392 87.71108 13819 ft 354 kts 180°
2026-04-28 05:38 44.18952 87.71128 13798 ft 340 kts 182°
2026-04-28 05:39 44.16622 87.71100 13833 ft 326 kts 182°
2026-04-28 05:39 44.14418 87.71036 13825 ft 313 kts 187°
2026-04-28 05:39 44.12377 87.70218 13807 ft 296 kts 213°
2026-04-28 05:39 44.10913 87.68413 13815 ft 278 kts 239°
2026-04-28 05:40 44.10225 87.65997 13765 ft 263 kts 266°
2026-04-28 05:40 44.10430 87.63509 13532 ft 258 kts 294°
2026-04-28 05:40 44.11472 87.61518 13286 ft 256 kts 322°
2026-04-28 05:40 44.13078 87.60506 13034 ft 257 kts 351°
2026-04-28 05:41 44.14844 87.60725 12790 ft 259 kts 20°
2026-04-28 05:41 44.16319 87.62122 12520 ft 262 kts 49°
2026-04-28 05:41 44.17147 87.64367 12205 ft 267 kts 78°
2026-04-28 05:41 44.17104 87.66953 11875 ft 271 kts 107°
2026-04-28 05:42 44.16177 87.69232 11570 ft 273 kts 135°
2026-04-28 05:42 44.14571 87.70653 11241 ft 274 kts 164°
2026-04-28 05:42 44.12707 87.70853 10926 ft 274 kts 192°
2026-04-28 05:42 44.10957 87.69816 10604 ft 275 kts 219°
2026-04-28 05:43 44.09609 87.67915 10305 ft 276 kts 229°
2026-04-28 05:43 44.08339 87.65912 10007 ft 278 kts 229°
2026-04-28 05:43 44.07050 87.63878 9767 ft 277 kts 229°
2026-04-28 05:43 44.05816 87.61867 9535 ft 276 kts 234°
2026-04-28 05:44 44.04829 87.59557 9284 ft 275 kts 246°
2026-04-28 05:44 44.04173 87.57080 9051 ft 274 kts 253°
2026-04-28 05:44 44.03641 87.54546 8830 ft 274 kts 255°
2026-04-28 05:44 44.03117 87.51973 8593 ft 273 kts 254°
2026-04-28 05:45 44.02598 87.49455 8347 ft 273 kts 254°
2026-04-28 05:45 44.02069 87.46931 8099 ft 272 kts 254°
2026-04-28 05:45 44.01531 87.44396 7943 ft 268 kts 253°
2026-04-28 05:45 44.01010 87.41954 7933 ft 258 kts 253°
2026-04-28 05:46 44.00509 87.39619 7927 ft 249 kts 253°
2026-04-28 05:46 44.00011 87.37302 7933 ft 251 kts 253°
2026-04-28 05:46 43.99512 87.34975 7946 ft 251 kts 253°
2026-04-28 05:46 43.99007 87.32617 7811 ft 253 kts 253°
2026-04-28 05:47 43.98509 87.30282 7569 ft 253 kts 252°
2026-04-28 05:47 43.98007 87.27934 7325 ft 254 kts 252°
2026-04-28 05:47 43.97503 87.25588 7083 ft 254 kts 252°
2026-04-28 05:47 43.97001 87.23244 6852 ft 255 kts 252°
2026-04-28 05:48 43.96489 87.20864 6609 ft 256 kts 252°
2026-04-28 05:48 43.95985 87.18515 6374 ft 256 kts 252°
2026-04-28 05:48 43.95363 87.16196 6122 ft 254 kts 233°
2026-04-28 05:48 43.94025 87.14706 5993 ft 241 kts 194°
2026-04-28 05:49 43.92413 87.14678 5975 ft 229 kts 161°
2026-04-28 05:49 43.90928 87.15370 5974 ft 222 kts 159°
2026-04-28 05:49 43.89478 87.16051 5947 ft 212 kts 160°
2026-04-28 05:49 43.88145 87.16721 5931 ft 199 kts 143°
2026-04-28 05:50 43.87286 87.18115 5899 ft 188 kts 106°
2026-04-28 05:50 43.87103 87.19904 5752 ft 188 kts 88°
2026-04-28 05:50 43.87287 87.21661 5519 ft 181 kts 77°
2026-04-28 05:50 43.87629 87.23296 5288 ft 175 kts 74°
2026-04-28 05:51 43.88001 87.24892 5044 ft 169 kts 73°
2026-04-28 05:51 43.88348 87.26427 4811 ft 163 kts 74°
2026-04-28 05:51 43.88667 87.27897 4594 ft 156 kts 75°
2026-04-28 05:51 43.88968 87.29323 4393 ft 149 kts 75°
2026-04-28 05:52 43.89253 87.30686 4220 ft 149 kts 75°
2026-04-28 05:52 43.89542 87.32078 4043 ft 148 kts 75°
2026-04-28 05:52 43.89827 87.33440 3864 ft 148 kts 75°
2026-04-28 05:52 43.90118 87.34826 3678 ft 148 kts 75°
2026-04-28 05:53 43.90408 87.36201 3489 ft 147 kts 75°
2026-04-28 05:53 43.90693 87.37548 3295 ft 147 kts 75°
2026-04-28 05:53 43.90980 87.38906 3102 ft 146 kts 75°
2026-04-28 05:53 43.91267 87.40259 2908 ft 146 kts 75°
2026-04-28 05:54 43.91555 87.41624 2715 ft 145 kts 74°
2026-04-28 05:54 43.91839 87.42958 2532 ft 145 kts 74°
2026-04-28 05:54 43.92122 87.44299 2338 ft 144 kts 74°
2026-04-28 05:54 43.92406 87.45626 2169 ft 142 kts 74°
2026-04-28 05:55 43.92671 87.46877 2146 ft 115 kts 73°
2026-04-28 05:55 43.92847 87.47702 2146 ft 64 kts 73°
2026-04-28 05:55 43.92925 87.48068 2146 ft 24 kts 73°
2026-04-28 05:55 43.92960 87.48293 2146 ft 22 kts 86°
2026-04-28 05:56 43.92945 87.48507 2146 ft 21 kts 100°
2026-04-28 05:56 43.92921 87.48689 2146 ft 14 kts 100°
2026-04-28 05:56 43.92911 87.48803 2146 ft 8 kts 88°
2026-04-28 05:56 43.92920 87.48888 2146 ft 9 kts 76°
2026-04-28 05:57 43.92939 87.48979 2146 ft 10 kts 73°
2026-04-28 05:57 43.92961 87.49081 2146 ft 11 kts 73°
2026-04-28 05:57 43.92983 87.49185 2146 ft 10 kts 73°
2026-04-28 05:57 43.93000 87.49264 2145 ft 4 kts 73°
2026-04-28 05:58 43.92991 87.49304 2146 ft 5 kts 132°
2026-04-28 05:58 43.92951 87.49333 2146 ft 7 kts 162°
2026-04-28 05:58 43.92898 87.49356 2146 ft 8 kts 162°
2026-04-28 05:58 43.92835 87.49384 2146 ft 9 kts 162°
2026-04-28 05:59 43.92765 87.49412 2146 ft 11 kts 163°
2026-04-28 05:59 43.92704 87.49435 2146 ft 4 kts 179°
2026-04-28 05:59 43.92678 87.49402 2146 ft 6 kts 237°
2026-04-28 05:59 43.92660 87.49339 2146 ft 7 kts 253°
2026-04-28 06:00 43.92643 87.49261 2146 ft 9 kts 253°
2026-04-28 06:00 43.92623 87.49168 2146 ft 10 kts 253°
2026-04-28 06:00 43.92601 87.49065 2146 ft 11 kts 253°
2026-04-28 06:00 43.92578 87.48954 2146 ft 12 kts 253°
2026-04-28 06:01 43.92552 87.48836 2146 ft 13 kts 253°
2026-04-28 06:01 43.92525 87.48709 2146 ft 13 kts 253°
2026-04-28 06:01 43.92499 87.48586 2146 ft 10 kts 253°
2026-04-28 06:01 43.92476 87.48541 2146 ft 6 kts 200°
2026-04-28 06:02 43.92426 87.48549 2146 ft 7 kts 165°
2026-04-28 06:02 43.92371 87.48572 2146 ft 5 kts 163°
2026-04-28 06:02 43.92337 87.48583 2146 ft 1 kts 175°
2026-04-28 06:02 43.92326 87.48575 2146 ft 2 kts 224°
2026-04-28 06:03 43.92315 87.48542 2146 ft 4 kts 250°
2026-04-28 06:03 43.92307 87.48510 2146 ft 1 kts 248°
2026-04-28 06:03 43.92299 87.48500 2146 ft 1 kts 205°
2026-04-28 06:03 43.92286 87.48502 2147 ft 2 kts 171°
2026-04-28 06:04 43.92270 87.48508 2147 ft 2 kts 162°
2026-04-28 06:04 43.92252 87.48516 2147 ft 1 kts 162°
2026-04-28 06:04 43.92237 87.48522 2147 ft 2 kts 162°
2026-04-28 06:04 43.92225 87.48528 2147 ft 1 kts 162°
2026-04-28 06:05 43.92219 87.48530 2147 ft 1 kts 162°
2026-04-28 06:05 43.92216 87.48531 2147 ft 0 kts 162°